Location: Rounton
(54.4000°N, 1.3500°W)
Time: 13:37:53
(UTC+00:00)

Transit 4A - Pass Details

Date: 03 December 2021
Orbit: 864 x 981 km, 66.8° (Epoch: 18 January)

Event Time Altitude Azimuth Distance (km) Brightness Sun altitude
Rises 04:44:18 0° 317° (NW) 3,604 - -28.1°
Reaches altitude 10° 04:46:56 10° 310° (NW) 2,673 - -27.7°
Maximum altitude 04:52:42 41° 243° (WSW) 1,375 - -26.8°
Exits shadow 04:54:56 30° 201° (SSW) 1,646 9.0 -26.5°
Drops below altitude 10° 04:58:33 10° 176° (S) 2,715 10.4 -26.0°
Sets 05:01:16 0° 169° (S) 3,666 11.2 -25.6°
